Wind_Speed
65 63 62 61 61 61 61 63 63 64 64 63 60 56 52 47 41 35 30 28 30 34 38 39 39 38 38 39 41 45 52 58 62 66 68 70 73 80 86 91 94 94 92
63 62 61 61 61 61 61 63 64 65 65 63 60 55 50 46 42 35 27 21 20 25 31 35 36 37 37 37 39 42 48 54 59 63 66 68 70 75 81 88 92 94 93
62 61 60 60 60 61 61 63 64 65 65 63 60 55 50 45 41 36 28 19 12 15 22 28 31 33 35 36 38 40 45 51 56 60 64 66 67 70 76 83 89 92 93
60 60 59 60 60 61 62 63 65 65 64 63 59 55 50 45 40 35 29 21 11 5 13 20 25 28 31 33 36 38 42 48 53 57 61 64 65 65 69 76 83 90 91
59 59 59 59 60 61 62 63 64 65 64 63 60 55 50 44 39 33 28 23 14 2 9 15 19 23 27 31 33 35 38 44 49 54 58 62 63 63 65 69 76 84 89
59 58 58 58 59 60 61 62 63 64 64 63 61 56 51 45 38 31 26 21 14 6 7 12 15 19 23 27 30 33 36 40 45 51 55 60 61 62 62 64 70 77 82
58 57 57 57 58 59 60 62 62 63 63 62 60 57 53 46 38 31 26 21 14 7 6 9 11 15 19 23 26 30 33 36 42 47 52 57 59 60 59 60 65 71 77
57 56 56 56 57 58 59 60 61 62 62 62 60 58 55 50 41 32 26 21 14 8 4 4 7 11 15 20 23 27 30 33 38 44 49 54 56 57 57 58 61 66 71
57 56 55 55 56 57 58 59 60 61 61 61 60 59 56 52 46 36 27 21 14 9 4 1 5 9 12 17 21 24 27 30 34 40 45 50 54 55 55 56 58 61 65
56 55 55 55 55 56 56 57 59 60 60 61 60 59 57 54 49 42 32 24 17 11 6 2 3 6 9 13 18 22 25 28 32 37 42 47 51 53 54 54 56 59 63
56 55 54 54 55 55 55 56 57 58 59 60 60 59 57 54 51 46 39 31 23 16 10 5 3 5 8 11 15 19 23 26 30 35 40 44 48 51 52 53 55 58 61
56 55 54 54 54 54 54 54 55 55 56 57 57 57 56 55 52 48 44 38 31 22 15 9 4 3 7 10 13 17 21 24 28 33 37 41 45 48 50 50 52 56 59
55 54 54 53 54 53 53 53 52 53 54 54 55 55 55 54 53 50 46 42 38 31 22 13 7 3 5 8 11 15 19 23 27 31 35 38 42 44 45 46 48 52 56
54 54 53 52 52 53 52 51 51 51 51 52 53 53 53 53 52 50 49 45 41 36 30 21 12 6 4 7 10 14 18 22 26 30 33 36 39 41 42 43 45 48 53
53 53 52 52 51 52 52 51 50 51 51 52 52 52 51 51 51 51 49 47 44 39 34 28 19 11 5 4 8 13 17 21 25 29 32 34 37 39 40 40 41 43 48
52 51 51 51 50 51 50 51 51 50 50 51 51 51 50 50 50 49 48 47 45 42 38 32 25 17 10 3 5 11 16 20 24 28 31 33 35 36 37 38 38 39 43
52 50 50 50 50 50 49 49 48 49 50 49 49 49 49 48 48 47 47 47 45 43 40 36 29 23 15 7 2 7 14 19 24 27 30 32 33 35 36 37 37 37 39
52 50 49 49 49 49 49 49 48 47 47 47 47 47 47 47 47 47 46 45 45 43 41 38 33 26 20 13 4 3 10 17 23 27 30 32 33 34 35 36 36 36 38
51 50 48 48 48 48 49 49 48 48 47 47 46 45 45 45 46 46 45 45 44 44 42 39 36 30 23 17 9 1 7 14 20 25 29 31 33 34 34 35 36 36 38
51 49 48 47 47 47 48 48 47 47 47 46 45 45 44 44 44 44 44 44 43 43 42 40 37 33 27 20 13 6 2 11 18 23 28 31 33 34 34 35 35 36 38
51 49 47 46 46 46 47 47 47 46 46 46 46 45 45 44 44 44 44 44 43 43 42 41 38 35 30 23 16 8 1 6 15 21 26 30 33 35 35 35 35 36 39
51 49 47 46 45 45 45 46 46 46 45 45 45 44 44 44 43 43 43 43 43 43 42 41 39 36 32 26 19 11 4 3 10 18 24 28 32 35 36 37 37 37 38
50 49 47 46 45 44 44 45 45 45 45 44 44 43 43 43 43 42 42 42 42 42 42 40 39 37 34 29 22 14 6 2 8 14 22 27 31 34 37 38 38 38 39
50 49 47 45 44 44 43 44 44 45 44 43 43 43 42 42 42 42 41 41 41 42 41 40 38 37 35 31 25 18 10 2 6 12 18 25 29 33 37 39 40 41 40
49 48 47 45 43 43 43 43 43 44 43 42 42 42 42 42 41 41 41 41 41 41 41 40 38 37 35 32 27 20 13 5 4 10 16 22 28 32 36 39 40 42 42
48 48 46 44 43 41 42 42 43 43 43 42 41 41 41 41 41 41 41 41 41 41 40 40 39 37 35 33 29 23 15 7 2 8 14 20 26 31 35 38 40 42 44
Wind_Direction
344 345 345 346 347 347 347 347 346 345 345 344 344 343 343 341 336 325 308 287 266 251 243 238 236 235 233 230 227 222 218 215 214 216 216 216 216 214 212 210 210 210 211
346 346 347 349 350 350 350 350 350 350 349 350 350 350 351 350 348 344 332 309 274 250 237 232 230 230 230 228 225 222 218 214 213 213 215 215 215 214 212 211 210 209 210
348 348 350 351 352 353 353 353 354 354 354 354 355 356 356 357 356 355 351 339 300 251 232 225 224 225 226 225 223 221 217 214 212 212 213 214 215 215 213 212 211 210 210
349 351 352 353 355 355 356 356 357 357 358 359 359 360 0 1 1 2 4 1 348 257 216 213 215 220 222 222 221 219 217 213 211 210 211 213 214 214 213 213 212 211 211
351 352 354 355 357 358 359 359 360 0 1 2 3 4 4 5 6 7 11 14 18 51 182 194 204 214 218 220 219 217 216 213 211 209 209 211 212 213 213 213 212 212 212
353 354 356 357 358 359 1 1 2 3 4 5 7 7 7 7 8 11 16 23 35 73 153 180 196 209 216 218 217 216 214 212 210 209 208 209 211 212 212 212 212 212 212
354 356 357 358 359 0 2 3 4 5 6 7 9 10 10 11 11 14 19 24 37 72 141 177 195 208 213 215 215 214 213 211 209 208 207 208 209 211 212 212 212 212 212
356 357 358 359 0 2 3 5 6 7 8 9 11 12 13 14 14 16 20 27 37 51 89 174 199 210 212 213 213 212 211 210 208 207 207 207 208 210 211 211 210 211 212
357 358 359 0 1 3 4 5 7 8 10 11 12 14 16 17 17 18 20 24 30 33 37 174 213 218 216 214 213 211 210 209 207 206 206 206 208 209 210 210 210 210 211
358 359 360 1 2 4 5 6 7 9 10 12 13 15 17 18 19 20 20 19 20 19 13 344 242 227 220 215 213 211 209 208 206 205 205 205 206 208 209 209 209 208 206
358 359 0 2 3 5 6 7 8 9 11 12 13 15 17 18 19 21 20 19 16 14 9 357 302 239 222 215 213 210 209 207 204 203 203 204 204 206 208 209 209 208 205
359 360 1 2 4 5 7 8 9 10 11 12 13 15 16 18 19 20 21 21 19 15 10 2 338 269 229 217 214 211 208 206 203 201 201 202 203 205 207 209 210 210 207
359 0 1 2 3 5 7 8 9 10 11 12 13 15 16 18 19 19 19 20 20 19 15 8 356 310 242 222 216 212 207 203 201 199 199 200 201 203 206 208 210 211 211
360 0 1 2 3 4 5 7 8 10 11 12 13 14 15 17 18 19 20 20 19 18 18 15 6 347 278 233 219 211 205 202 199 198 198 199 200 202 204 207 210 211 212
360 0 1 2 3 3 4 6 7 8 9 11 12 13 14 15 16 18 19 20 20 20 18 17 15 7 339 254 221 210 204 200 198 197 197 198 199 201 203 206 208 211 211
359 0 1 2 2 3 4 4 5 7 9 9 10 11 13 14 15 16 18 18 19 19 19 18 17 14 7 327 228 211 204 200 198 197 197 198 199 200 202 204 206 208 209
358 359 1 2 2 3 4 5 5 6 7 8 9 10 12 13 14 15 16 17 17 18 18 18 18 17 15 6 276 212 204 200 197 197 197 197 198 199 200 201 203 204 204
358 359 360 1 2 2 3 4 5 6 7 7 8 9 10 12 13 14 15 15 16 16 17 17 17 17 16 15 3 216 202 199 197 196 197 197 197 198 199 200 201 201 200
357 358 358 359 1 1 2 3 4 5 6 7 7 8 9 10 11 12 13 14 15 15 16 16 16 16 15 15 14 347 204 199 197 197 197 197 198 198 198 199 199 198 197
356 357 357 358 359 0 1 2 2 3 4 5 6 7 8 9 10 10 12 13 13 14 15 15 14 14 14 13 11 11 207 200 198 197 197 197 197 197 197 198 198 197 195
355 356 356 357 358 359 360 1 1 2 3 3 4 5 6 7 8 9 10 11 11 12 12 13 13 13 13 12 10 8 345 201 199 198 198 197 197 197 197 197 197 195 194
355 355 355 356 357 358 358 359 0 1 1 2 3 3 4 5 6 7 8 9 9 10 10 11 11 12 12 11 9 5 352 213 201 199 198 198 197 196 196 196 196 195 194
354 354 355 355 356 357 357 358 359 360 0 1 1 2 3 4 5 5 6 7 7 8 8 9 9 9 10 9 8 5 356 244 205 200 199 198 197 196 195 195 195 194 194
353 353 354 354 355 356 357 357 358 359 359 360 0 1 2 2 3 4 5 5 5 5 6 7 7 7 8 8 7 6 359 314 214 202 199 198 198 196 195 195 195 195 194
352 352 353 353 353 355 356 357 357 358 358 359 360 1 1 2 2 3 3 4 4 4 4 5 6 6 7 8 7 5 1 344 229 207 201 199 198 197 195 195 195 195 194
350 351 352 352 352 353 355 356 357 357 358 359 359 0 1 2 2 2 3 3 3 3 3 4 5 5 6 6 6 4 2 353 272 211 204 200 198 197 196 195 195 194 194
Height
5543 5528 5514 5500 5485 5470 5455 5440 5423 5407 5389 5371 5354 5336 5321 5307 5295 5285 5279 5277 5279 5284 5291 5300 5308 5316 5323 5330 5338 5346 5357 5368 5381 5393 5407 5420 5434 5450 5467 5485 5503 5522 5539
5539 5524 5510 5495 5481 5466 5451 5435 5419 5401 5383 5365 5348 5331 5316 5302 5289 5279 5272 5268 5268 5272 5279 5288 5297 5305 5313 5320 5328 5336 5346 5357 5370 5382 5395 5408 5422 5437 5453 5470 5487 5505 5524
5535 5521 5506 5492 5478 5463 5448 5432 5415 5398 5380 5362 5345 5329 5314 5300 5288 5278 5270 5265 5263 5265 5271 5280 5288 5296 5304 5312 5319 5327 5336 5347 5359 5372 5384 5397 5411 5425 5440 5456 5473 5491 5509
5532 5518 5504 5489 5475 5460 5445 5429 5413 5396 5379 5361 5344 5328 5314 5301 5289 5280 5272 5266 5263 5263 5268 5275 5283 5290 5297 5304 5311 5319 5328 5338 5350 5362 5374 5387 5401 5415 5429 5445 5461 5477 5494
5529 5516 5501 5487 5473 5458 5443 5428 5412 5395 5378 5362 5345 5330 5316 5304 5292 5283 5276 5270 5266 5266 5269 5274 5280 5285 5291 5297 5305 5314 5322 5331 5342 5353 5365 5378 5392 5405 5419 5433 5449 5465 5481
5528 5514 5500 5486 5472 5458 5443 5428 5413 5397 5380 5364 5348 5333 5319 5306 5296 5288 5280 5275 5271 5271 5273 5276 5280 5284 5288 5295 5302 5309 5316 5325 5335 5346 5358 5370 5383 5397 5410 5423 5438 5454 5471
5526 5512 5499 5485 5472 5458 5444 5429 5414 5399 5384 5367 5352 5337 5323 5311 5300 5292 5285 5280 5277 5275 5276 5278 5281 5284 5288 5293 5299 5305 5313 5321 5330 5340 5351 5362 5375 5389 5403 5417 5429 5442 5458
5524 5511 5498 5485 5472 5458 5444 5431 5417 5402 5387 5372 5357 5342 5329 5316 5305 5297 5290 5285 5282 5281 5280 5281 5283 5285 5288 5292 5297 5303 5310 5317 5325 5335 5345 5357 5368 5381 5394 5407 5420 5434 5447
5524 5511 5498 5486 5473 5459 5446 5433 5419 5405 5391 5377 5362 5348 5335 5323 5312 5303 5296 5290 5287 5285 5284 5284 5285 5287 5289 5292 5297 5302 5308 5314 5321 5330 5339 5350 5362 5374 5387 5399 5412 5426 5439
5523 5511 5498 5486 5473 5460 5448 5435 5421 5408 5395 5381 5367 5354 5341 5330 5319 5309 5302 5296 5291 5289 5287 5287 5287 5288 5289 5292 5296 5300 5306 5311 5318 5326 5335 5345 5356 5368 5380 5392 5405 5417 5429
5523 5511 5499 5486 5474 5461 5449 5436 5424 5411 5398 5385 5373 5360 5348 5337 5326 5317 5308 5301 5296 5292 5290 5288 5288 5288 5289 5291 5295 5299 5303 5309 5315 5322 5331 5341 5351 5362 5374 5386 5397 5409 5421
5522 5510 5499 5487 5475 5463 5451 5439 5427 5415 5403 5392 5380 5368 5356 5344 5334 5324 5315 5307 5301 5296 5292 5290 5289 5288 5289 5291 5294 5297 5301 5306 5313 5320 5328 5337 5346 5357 5368 5379 5390 5401 5412
5522 5510 5499 5487 5476 5465 5454 5443 5432 5420 5409 5398 5387 5375 5363 5352 5341 5331 5322 5313 5306 5300 5295 5292 5290 5289 5289 5290 5293 5296 5299 5304 5310 5317 5324 5333 5342 5352 5362 5373 5383 5393 5404
5522 5511 5499 5488 5477 5467 5456 5446 5435 5425 5414 5403 5392 5380 5369 5359 5349 5339 5329 5319 5312 5305 5299 5294 5291 5289 5289 5290 5292 5294 5298 5302 5308 5314 5321 5330 5338 5348 5357 5367 5377 5386 5396
5522 5511 5500 5490 5479 5468 5458 5447 5438 5427 5416 5406 5395 5385 5375 5365 5354 5344 5334 5326 5318 5310 5303 5298 5293 5291 5289 5289 5291 5293 5296 5301 5306 5312 5319 5327 5335 5343 5352 5361 5370 5380 5389
5523 5512 5502 5492 5481 5471 5460 5448 5437 5428 5419 5408 5398 5388 5378 5369 5359 5350 5340 5332 5323 5315 5308 5302 5296 5293 5290 5289 5290 5292 5295 5299 5304 5310 5317 5324 5331 5339 5348 5356 5365 5374 5383
5523 5513 5503 5493 5483 5473 5463 5453 5442 5431 5421 5411 5402 5392 5383 5373 5364 5355 5346 5337 5329 5321 5313 5306 5300 5295 5292 5290 5290 5291 5293 5297 5302 5307 5314 5321 5328 5336 5344 5352 5361 5369 5377
5523 5513 5503 5493 5483 5474 5464 5454 5444 5435 5426 5416 5406 5396 5387 5378 5369 5360 5351 5342 5334 5325 5318 5311 5304 5298 5294 5292 5290 5291 5292 5295 5300 5305 5311 5318 5325 5333 5340 5348 5356 5364 5373
5523 5513 5503 5494 5484 5475 5465 5455 5446 5436 5427 5418 5409 5400 5391 5382 5373 5364 5355 5347 5338 5330 5322 5314 5308 5302 5297 5293 5291 5290 5291 5294 5298 5303 5309 5315 5322 5329 5337 5345 5353 5361 5369
5523 5513 5503 5494 5485 5475 5466 5457 5447 5438 5429 5420 5411 5403 5394 5385 5377 5368 5359 5350 5342 5334 5326 5318 5311 5305 5299 5295 5292 5291 5291 5293 5296 5300 5306 5312 5319 5326 5334 5342 5349 5357 5365
5522 5512 5503 5494 5485 5476 5467 5458 5448 5439 5430 5421 5412 5404 5395 5386 5378 5370 5362 5353 5345 5337 5329 5321 5314 5308 5302 5297 5293 5291 5291 5292 5294 5298 5303 5309 5316 5323 5330 5338 5346 5354 5362
5522 5512 5503 5494 5485 5476 5467 5458 5449 5440 5431 5422 5414 5405 5397 5388 5380 5372 5364 5356 5347 5339 5332 5324 5317 5310 5304 5298 5294 5291 5290 5291 5292 5296 5300 5306 5312 5319 5327 5335 5343 5351 5359
5521 5511 5502 5493 5484 5475 5467 5458 5449 5441 5432 5423 5415 5407 5399 5390 5382 5374 5366 5358 5350 5342 5334 5326 5319 5312 5305 5299 5294 5291 5290 5290 5291 5293 5298 5303 5309 5316 5323 5331 5339 5347 5355
5520 5511 5501 5492 5484 5475 5467 5458 5450 5441 5433 5424 5416 5408 5400 5392 5383 5375 5367 5359 5351 5343 5335 5328 5320 5313 5306 5300 5295 5291 5289 5288 5289 5291 5295 5300 5305 5312 5319 5327 5335 5344 5352
5519 5510 5501 5492 5483 5475 5466 5458 5450 5441 5433 5425 5417 5409 5401 5393 5385 5377 5369 5361 5353 5345 5336 5329 5321 5314 5307 5300 5295 5290 5287 5286 5287 5288 5292 5296 5302 5308 5315 5323 5331 5340 5348
5518 5509 5500 5491 5482 5474 5466 5458 5450 5442 5433 5425 5417 5409 5402 5394 5386 5378 5370 5362 5354 5345 5337 5329 5321 5314 5307 5300 5294 5289 5286 5284 5284 5286 5289 5293 5298 5304 5311 5318 5326 5335 5344